Location: Newark
(45.4422°N, 16.2769°E)
Time: 06:05:48
(UTC+00:00)

Courier 1B Rocket - Pass Details

Date: 06 December 2019
Orbit: 920 x 1202 km, 28.2° (Epoch: 20 January)

Event Time Altitude Azimuth Distance (km) Brightness Sun altitude
Rises 06:42:10 0° 213° (SSW) 3,652 8.1 2.5°
Reaches altitude 10° 06:47:15 10° 179° (S) 2,650 7.9 3.2°
Maximum altitude 06:48:52 11° 164° (SSE) 2,565 8.2 3.4°
Drops below altitude 10° 06:50:28 10° 149° (SSE) 2,625 8.8 3.6°
Sets 06:55:24 0° 116° (ESE) 3,549 10.0 4.3°
